Theta_e
331 318 314 312 301 298 295 301 308 310 310 313 328 328 326 327 325 318 345 351 358 358 360 362 363 363 362 362 361 361 360 360 361 362 362 361 361 361 361 362 362 362 359 356 353 353 354 354 354
325 318 313 306 296 291 294 304 306 310 313 323 331 331 328 325 338 342 346 356 358 359 359 360 363 362 362 361 361 361 360 360 360 361 362 362 361 361 361 360 360 357 355 353 352 353 353 353 352
319 317 304 300 294 292 295 303 308 313 317 313 325 331 331 330 341 342 351 356 358 357 358 360 363 362 362 361 360 360 360 360 360 361 362 362 362 361 360 360 359 356 353 351 351 352 353 353 353
312 306 305 295 293 299 302 306 308 312 316 324 329 326 333 341 338 348 354 356 354 356 359 362 362 362 362 361 361 360 360 360 360 361 361 361 361 361 360 360 358 356 353 351 352 352 353 353 353
308 302 296 292 294 301 307 308 309 312 312 322 328 325 327 339 348 352 352 352 352 355 359 361 362 362 362 361 361 360 360 360 360 361 361 360 360 360 360 359 358 356 354 351 350 351 353 354 353
301 300 291 291 297 307 307 310 311 315 323 325 327 325 326 344 345 348 351 349 355 355 358 360 363 362 361 361 360 360 359 359 360 360 360 360 359 359 359 359 358 356 354 352 350 350 348 347 346
300 296 293 294 299 303 307 309 309 310 312 313 321 319 322 332 345 347 348 349 355 356 355 358 360 362 362 361 360 359 359 359 359 359 359 359 359 359 359 358 357 355 353 352 350 348 346 344 343
303 298 293 296 299 299 306 307 306 310 311 320 320 311 310 317 337 344 345 349 352 353 353 355 357 360 359 358 360 359 359 359 358 358 358 358 358 358 358 355 356 355 354 352 350 348 346 344 343
305 296 293 295 299 301 307 304 309 311 311 314 316 315 317 317 319 340 346 347 350 351 351 353 355 356 356 357 359 360 361 360 359 359 358 355 354 354 354 354 356 356 354 352 350 349 347 345 345
298 296 301 304 303 301 305 305 305 306 306 310 312 316 316 316 314 316 342 344 346 347 348 350 352 353 354 358 357 357 357 357 356 355 354 352 350 351 353 353 356 355 354 352 351 349 348 346 333
295 294 302 303 305 307 306 305 304 305 302 304 304 309 311 312 310 311 323 343 346 349 348 348 349 350 351 352 355 355 356 355 355 354 353 351 350 350 350 348 350 349 352 344 346 344 341 336 332
292 299 301 303 305 304 305 311 306 308 307 309 308 309 309 308 307 307 309 310 324 346 348 347 347 347 349 351 352 352 353 352 351 352 352 349 348 345 345 345 344 345 344 341 340 338 336 334 331
293 297 301 304 304 303 305 303 304 305 308 310 309 309 307 306 307 307 308 309 315 319 338 345 346 345 346 345 350 350 350 352 352 352 352 350 347 344 344 343 343 342 341 340 336 335 334 332 331
297 298 299 302 302 303 300 299 302 305 309 308 307 305 305 307 308 307 307 308 318 322 332 343 342 342 342 342 347 347 348 350 350 351 351 351 349 347 344 341 341 340 340 339 335 332 328 328 327
297 293 296 299 300 299 302 298 299 306 307 305 305 304 306 307 309 308 309 313 316 317 323 338 345 345 342 341 345 344 343 346 347 349 350 352 351 348 346 342 340 340 339 336 335 329 328 327 328
294 292 288 295 300 301 300 294 301 305 304 303 304 303 305 307 307 306 310 313 312 315 321 323 340 341 341 343 350 351 346 342 343 344 346 349 351 350 344 344 341 340 339 337 335 332 327 328 332
290 287 289 294 300 300 298 294 301 304 302 301 302 302 305 305 308 308 310 312 312 313 319 321 323 322 326 330 333 345 352 351 347 344 341 343 347 349 347 344 343 340 337 337 334 333 331 327 329
287 288 291 291 296 297 295 294 299 302 301 302 302 302 303 304 305 308 308 313 315 317 318 320 326 328 327 325 325 333 347 347 348 346 345 343 344 345 344 344 342 340 340 337 335 333 332 330 330
294 292 292 295 298 296 295 296 299 300 300 300 301 302 303 304 307 309 311 318 319 319 318 318 320 322 321 320 318 319 328 341 346 347 348 346 343 344 342 342 342 339 339 339 337 336 332 332 328
295 292 292 295 298 295 293 294 296 298 298 299 300 301 302 303 305 310 314 313 314 314 314 315 316 315 319 321 323 324 326 327 334 341 345 349 344 344 343 342 340 341 339 338 337 335 334 329 329
294 292 292 293 297 295 293 291 293 298 300 301 301 302 303 304 304 309 309 309 312 312 313 316 315 316 318 320 319 318 318 318 319 323 333 341 349 345 345 345 342 340 341 340 338 336 334 331 328
290 297 296 295 292 285 293 283 289 295 297 299 301 300 300 303 305 309 307 307 309 310 311 310 317 319 318 318 317 318 317 316 319 320 323 324 327 336 344 345 344 341 341 340 340 336 334 333 330
294 298 296 295 290 287 289 284 288 294 294 297 299 302 303 302 306 306 306 308 308 308 308 315 317 314 315 318 320 317 315 317 318 319 321 322 322 324 328 337 342 344 341 341 339 337 334 335 332
300 295 292 290 287 281 287 287 286 291 294 297 302 302 303 302 304 305 306 306 306 307 308 311 312 314 315 319 314 314 314 314 315 318 318 320 323 325 325 326 331 334 341 342 340 339 336 335 334
294 287 280 279 279 280 289 287 287 295 300 302 300 300 301 302 302 302 303 304 304 304 305 309 307 308 310 312 316 315 315 316 316 317 318 319 320 323 324 326 326 328 335 338 341 340 338 336 335
291 288 281 277 278 281 291 286 291 301 303 303 304 302 303 301 301 302 303 303 303 304 304 308 308 308 309 310 312 314 314 316 318 318 319 320 319 320 324 326 328 329 330 333 336 339 338 339 337
295 290 292 286 286 282 286 291 296 301 302 303 302 300 301 302 302 303 302 302 302 302 304 307 307 308 307 308 310 312 318 317 314 315 319 317 319 323 323 325 326 328 331 334 335 334 334 335 329
297 300 289 286 279 278 285 287 289 296 298 300 300 300 300 299 300 302 302 301 302 302 304 304 307 306 305 311 315 316 315 314 314 316 316 317 318 320 320 320 320 321 322 325 330 330 326 327 325
296 292 292 290 286 279 279 284 297 299 300 300 300 303 303 301 301 300 300 300 300 301 302 304 304 307 309 312 311 311 312 314 316 316 318 314 315 316 317 319 319 317 317 321 324 327 328 325 325
293 292 293 288 285 284 281 283 300 301 300 299 300 301 302 301 300 301 302 303 303 303 304 305 305 305 305 306 308 311 311 313 315 316 316 314 313 314 313 316 316 316 316 316 320 325 327 327 325
Wind_Speed
7 7 3 3 3 5 5 7 4 9 6 4 6 8 7 4 4 4 1 13 19 15 13 11 15 18 18 18 16 15 15 15 15 15 14 14 14 15 15 15 14 14 13 13 12 12 11 11 9
4 6 4 2 3 0 6 6 11 11 7 6 13 13 10 4 6 9 6 12 16 15 13 9 14 17 19 18 17 15 15 15 14 14 13 13 13 13 13 13 13 13 12 12 12 12 11 9 7
4 3 2 3 3 6 5 5 6 11 10 0 7 4 3 3 8 5 12 15 15 13 12 10 13 16 18 18 18 17 16 15 14 14 14 14 13 13 12 12 12 12 12 12 11 10 9 8 7
2 4 3 2 6 7 7 11 12 19 10 7 11 5 5 1 6 10 17 17 14 11 12 13 12 14 16 18 18 17 17 17 16 14 13 13 12 11 10 11 10 10 11 11 11 10 9 8 7
1 3 1 5 5 7 9 8 13 15 0 5 6 4 5 5 19 19 17 17 16 11 11 11 13 13 14 16 16 16 16 17 17 15 14 13 11 10 9 9 9 8 9 9 9 9 7 6 5
1 3 2 6 4 10 6 11 6 4 9 7 12 8 4 14 18 15 16 16 16 15 13 12 15 14 13 15 15 15 15 15 16 15 15 14 12 11 11 10 10 10 9 8 8 8 8 7 7
4 4 6 5 4 9 3 9 4 7 8 3 8 6 2 8 16 17 15 14 14 13 14 12 11 13 15 14 15 15 15 15 15 16 16 16 15 13 11 10 10 10 9 9 9 9 9 9 9
3 4 4 4 4 9 3 12 2 7 5 9 3 4 4 3 12 16 15 13 14 13 14 13 12 10 9 9 14 15 15 15 15 15 15 14 15 16 16 13 12 12 11 11 11 11 10 10 10
2 2 7 5 5 2 9 7 8 4 5 5 4 8 6 9 12 13 11 9 8 9 11 13 15 14 11 9 10 14 16 16 16 15 16 12 7 9 11 14 17 16 15 14 13 13 12 12 11
5 9 18 6 6 5 8 4 9 6 6 6 4 3 6 8 6 14 13 12 10 10 10 11 12 13 14 11 10 9 9 8 8 8 9 6 6 7 10 12 15 16 18 17 16 15 14 12 5
6 10 11 5 9 15 6 15 3 3 4 4 4 4 3 4 5 8 10 14 16 12 9 13 14 13 14 11 9 7 6 7 7 8 9 8 7 6 6 4 6 7 14 6 9 9 7 8 6
5 6 8 8 13 2 10 20 14 6 10 2 3 4 6 5 4 3 6 8 8 11 14 12 13 13 13 8 9 10 10 9 7 9 6 4 4 5 6 5 7 7 6 8 8 6 7 8 8
7 8 10 17 18 11 12 16 11 8 5 4 4 6 3 6 3 1 5 4 8 8 13 15 14 13 11 8 7 7 8 8 9 9 11 9 6 4 4 5 5 6 5 6 7 7 8 9 9
10 18 17 12 17 12 9 10 7 9 6 8 3 7 5 5 4 2 3 5 7 4 7 11 10 6 6 5 7 7 7 9 9 9 10 13 10 10 8 6 6 6 6 6 5 5 4 4 4
8 6 9 16 13 9 10 8 8 8 7 9 9 7 6 8 7 5 3 3 9 3 7 8 10 9 6 6 5 3 4 6 8 9 11 13 12 10 11 9 9 9 8 7 5 5 4 5 4
7 6 6 7 15 10 10 14 8 10 9 11 10 9 6 7 6 4 5 9 7 6 8 7 7 8 8 6 4 2 4 4 5 4 6 12 13 12 10 9 9 8 8 8 8 6 7 6 7
4 4 4 5 8 5 8 7 11 10 8 9 10 10 8 6 3 4 7 9 9 9 8 8 8 8 7 5 3 1 5 5 4 5 5 8 10 13 11 10 9 7 8 8 9 8 9 9 9
4 3 4 5 3 4 8 9 13 10 9 10 9 9 9 9 10 9 8 7 7 9 9 9 7 8 6 4 3 2 1 4 3 5 5 6 10 11 10 10 11 8 8 8 7 10 8 8 9
4 4 6 6 7 8 11 16 22 14 6 8 9 8 8 8 9 7 4 10 10 7 9 9 10 6 4 2 2 2 0 1 2 5 5 6 7 10 10 10 8 7 9 12 10 8 9 8 2
7 8 9 9 6 6 3 6 6 5 7 8 9 9 10 7 9 5 8 7 7 8 7 8 8 8 5 4 3 3 2 2 3 3 5 6 7 9 9 11 9 9 9 12 12 11 10 5 7
10 9 8 9 4 1 2 7 4 5 4 8 7 9 10 14 12 9 9 9 9 9 9 8 7 6 5 5 3 2 2 2 4 3 3 4 5 6 9 12 9 10 8 11 13 11 14 14 6
8 9 8 4 4 4 4 6 4 5 6 5 9 8 11 12 8 13 11 8 9 8 8 8 7 7 5 6 4 4 3 2 3 3 3 5 6 6 5 9 12 10 11 13 12 9 10 10 14
11 8 5 3 2 2 5 4 9 1 6 10 9 10 13 13 14 14 10 10 7 8 8 8 9 8 6 5 6 5 3 3 3 4 6 7 5 5 6 7 9 12 9 13 13 11 12 13 13
3 3 6 5 4 1 6 5 5 4 5 7 5 7 9 7 11 9 8 8 6 6 6 6 7 5 5 6 5 4 5 6 4 5 4 4 5 7 7 7 8 10 11 13 13 14 18 15 14
9 7 4 3 2 6 5 2 8 6 7 7 6 8 9 8 8 7 9 7 7 7 7 6 7 7 7 5 4 7 8 7 6 6 3 5 3 4 10 12 8 7 11 12 12 14 14 16 14
2 6 7 5 4 4 3 4 5 3 5 9 8 7 7 9 8 8 9 8 9 9 8 8 8 6 6 5 8 6 5 5 5 4 3 3 3 4 8 11 13 11 11 13 12 9 13 15 13
5 3 5 6 3 4 4 5 7 6 7 9 9 7 4 7 8 9 8 8 7 6 8 10 9 9 8 8 7 7 7 7 6 7 5 4 5 5 6 8 10 12 12 11 10 8 10 10 8
2 3 3 4 5 5 4 4 5 3 4 7 7 5 6 5 6 6 5 7 8 9 8 7 8 9 9 8 8 7 8 7 7 5 6 5 6 5 5 6 6 7 9 10 11 11 6 10 9
5 4 3 2 5 6 3 6 7 5 4 1 7 5 6 8 7 6 6 8 9 8 5 5 6 6 5 5 6 7 7 7 7 7 6 6 5 5 5 5 6 6 7 8 9 12 14 13 15
2 2 3 4 4 1 4 7 6 5 6 5 8 9 9 8 9 10 9 11 12 10 9 8 8 8 7 7 6 7 7 6 7 7 7 7 7 5 5 6 7 8 9 9 10 11 13 16 17
Wind_Direction
316 309 286 40 41 70 256 263 250 304 297 329 72 104 129 101 157 177 298 136 130 136 146 156 150 138 134 131 129 126 124 123 123 122 122 124 123 122 123 124 125 127 129 127 125 124 125 125 122
322 314 22 81 124 198 272 243 254 265 238 132 91 83 50 57 69 112 93 132 133 136 138 146 154 143 139 136 134 132 132 131 131 130 128 127 125 123 122 121 123 128 130 130 131 132 132 134 135
281 196 80 146 181 193 233 231 277 288 305 146 116 53 74 89 125 115 120 128 127 131 134 144 157 150 144 143 141 142 142 141 141 140 139 139 137 135 134 132 133 136 138 139 138 136 140 146 152
311 10 331 156 229 253 242 287 275 283 308 66 128 55 33 14 123 138 135 134 128 132 131 144 158 156 151 151 150 151 150 150 148 148 147 146 144 141 139 137 139 143 146 147 146 149 157 164 171
61 68 266 261 240 259 254 277 277 268 100 348 133 100 87 40 109 129 140 143 138 137 134 145 157 162 159 157 156 156 157 156 155 153 151 149 147 146 144 142 141 145 149 153 155 160 166 175 186
311 111 104 249 247 257 313 281 281 232 108 106 93 117 107 131 132 150 150 153 148 147 148 155 163 166 165 162 162 162 162 162 159 159 156 155 155 157 158 158 158 158 160 165 168 170 180 188 203
171 115 220 232 272 296 262 334 341 353 126 99 158 105 107 141 160 158 153 148 148 148 152 159 166 170 171 170 167 168 168 167 168 167 166 164 164 165 168 169 170 169 171 176 183 190 193 198 210
190 107 244 227 184 267 349 332 329 355 328 127 123 132 144 171 142 153 150 149 152 155 160 161 162 165 168 173 175 173 174 175 174 175 174 173 173 172 173 176 181 182 183 189 194 199 205 211 214
234 248 231 219 176 227 322 325 317 283 4 100 118 128 182 156 114 110 127 144 149 167 169 170 166 166 165 169 181 180 182 181 181 182 180 172 178 184 191 186 184 189 191 194 200 204 208 212 221
167 213 234 234 259 152 292 286 304 16 29 354 100 129 171 157 158 136 162 166 169 180 183 182 177 174 167 171 175 179 188 187 187 186 180 180 187 194 192 194 201 196 194 198 203 207 212 213 212
205 214 229 331 276 290 283 309 230 318 311 137 346 123 17 83 64 111 148 170 183 183 184 193 188 185 177 177 169 178 185 189 194 190 186 191 188 195 199 208 206 207 210 209 211 210 212 210 207
229 202 202 230 250 328 313 294 299 264 262 188 274 276 146 125 106 76 131 150 152 181 206 190 191 185 191 171 177 173 179 184 191 199 192 194 209 213 205 209 214 208 211 207 203 208 214 223 221
211 247 210 225 239 229 236 239 246 268 283 322 351 346 163 132 140 301 323 84 145 177 203 195 188 188 195 177 174 180 184 183 188 189 187 181 196 215 224 227 225 224 222 230 235 231 214 227 220
207 225 236 232 229 230 213 243 203 233 258 290 282 279 248 170 175 173 341 332 110 145 177 173 176 170 172 180 194 187 189 186 184 189 195 199 201 201 193 195 219 234 218 212 221 241 263 234 276
225 228 236 242 236 226 196 240 225 221 240 259 266 247 245 225 172 181 152 88 140 96 109 138 151 157 170 192 204 220 226 197 191 195 194 199 205 210 213 211 207 219 219 216 222 221 210 240 228
172 153 219 252 214 227 162 252 235 231 219 240 256 261 240 245 217 191 149 153 166 122 108 97 113 117 126 127 149 155 202 228 242 218 198 203 206 209 212 219 221 214 205 201 210 215 230 231 224
20 219 197 275 183 206 178 246 242 235 209 224 236 241 204 221 236 212 158 174 171 135 125 100 97 103 115 109 104 223 224 195 203 212 213 224 224 221 214 217 228 206 210 212 213 216 214 222 225
233 233 273 239 295 244 259 252 248 225 202 216 220 201 201 206 222 222 218 113 119 121 131 120 105 101 78 60 45 32 27 262 213 222 231 225 222 225 226 231 226 219 219 225 218 224 221 233 232
235 251 266 277 258 218 236 251 236 218 189 202 208 212 215 211 228 225 128 129 120 118 110 118 119 133 117 82 69 52 76 211 298 300 263 234 223 228 219 232 236 232 235 227 218 215 222 228 200
249 255 263 283 223 198 329 304 225 206 201 202 207 223 225 229 240 121 126 136 124 141 132 123 125 140 144 142 160 155 175 248 235 256 276 259 226 231 235 238 232 225 234 236 232 217 224 229 181
244 232 258 238 250 71 33 331 1 313 248 192 232 227 220 215 219 152 155 158 150 150 158 143 151 149 137 134 109 75 41 352 355 307 286 278 265 248 245 256 239 238 233 234 235 230 226 233 221
236 203 208 242 298 249 126 269 298 259 272 284 274 246 226 226 179 167 166 163 159 164 152 143 155 153 155 146 126 132 155 207 245 252 259 285 284 273 257 256 257 236 238 232 235 229 222 232 235
225 231 227 208 202 59 333 89 273 257 308 283 294 294 266 209 167 158 164 157 163 153 147 143 154 165 165 156 152 154 175 215 243 277 295 301 290 259 262 261 264 255 235 246 238 234 222 225 226
220 179 45 49 100 328 260 145 268 269 268 289 319 346 315 145 135 129 144 144 146 146 138 144 142 164 175 170 183 188 228 254 267 273 287 289 301 309 300 267 265 274 268 242 239 239 236 228 229
55 52 4 337 340 212 230 329 233 294 324 282 144 71 60 83 101 130 134 144 155 161 167 171 174 186 192 190 203 219 228 236 251 264 268 294 287 305 306 299 282 252 264 271 255 234 243 242 234
318 133 148 211 212 255 343 226 250 90 333 10 54 78 104 131 147 161 169 173 181 189 190 183 182 199 208 212 231 238 213 220 225 228 232 256 265 281 293 298 295 283 271 271 270 262 247 242 241
325 59 200 111 359 77 251 285 344 9 51 31 45 46 118 164 181 184 195 200 205 214 216 197 196 211 209 220 224 216 203 203 221 236 216 223 259 279 312 320 315 313 307 290 281 275 271 257 188
116 286 22 17 157 212 272 229 211 45 31 12 51 47 352 338 311 284 262 238 241 234 230 220 211 203 217 211 196 193 203 215 231 229 233 228 247 249 279 287 293 292 300 298 289 278 248 223 201
13 338 1 92 137 171 186 247 183 129 125 344 308 288 224 226 229 268 310 338 331 323 322 323 324 304 272 243 222 213 216 217 217 224 222 232 224 235 261 267 275 289 296 292 274 269 271 234 237
101 0 107 173 270 254 156 262 278 23 336 319 318 320 344 34 58 47 28 32 26 18 19 20 19 16 355 327 300 289 299 261 219 228 228 232 249 238 246 249 250 274 285 297 291 274 268 260 243